STARLINK-5770, 56026

Orbit data source: Space-Track

STARLINK-5770, 56026 is a payload satellite owned by SpaceX/Seattle (US) in LEO that was launched on Fri, 24 Mar 2023 UTC via an FALCON 9 launch vehicle from the Air Force Eastern Test Range (AFETR). Payload-class satellites include a variety of spacecraft equipped with specific instruments for various scientific and technological missions. These include communications satellites like Starlink; space stations such as the ISS; scientific satellites like the Hubble; Earth observation satellites from companies like Planet Labs, Umbra, and HawkEye 360; GPS; miniature CubeSats for education and research; and military/defense satellites.

Loading next visibility...
Identifier
56026, 2023-042AS
Orbit
LEO
Country
Flag of USUS
Related business
Manufacturer
SpaceX/Seattle
Mission
Operational Commercial Communications
Bus & Motor
STARLINK, Unknown motor
Mass
305 kg wet, ~290 kg dry
Launch date (UTC)
2023-03-24 (3 years ago)
Launch vehicle
FALCON 9
Launch site
Air Force Eastern Test Range (AFETR)
Object type
Payload
Rocket body
Debris
Shape & HBR
Box + 1 Pan, 10.1 m
Radar Cross Section
11.087 m², Large (>1 m²)

Expand to show TLE details & history
Last TLE update: 2 days ago

TLE from 2 days ago
0 STARLINK-5770
1 56026U 23042AS  26171.11316163  .00001264  00000-0  55466-4 0  9992
2 56026  43.0025 186.4703 0001608 266.8042  93.2626 15.27579517178695
Epoch: 2026-06-20T02:42Z
TLE epoch observation values (Epoch: 2026-06-20T02:42:57.164Z)
Latitude
-0.00001°
Longitude
-122.60035°
Altitude
482.889 km
Speed
7.626 km/s
True Right ascension
12h 25m 52s
True Declination
0° 00' 00"
Sunlit
Object was in daylight at epoch
Visualization orbit readout
Latitude
Unknown
Longitude
Unknown
Altitude
Unknown
Speed
Unknown
Apparent Right ascension
Unknown
Apparent Declination
Unknown
Sunlit
N/A
Visualization observer readout
Local Sidereal Time
21:28:42
Azimuth
Unknown
Elevation
Unknown
Doppler factor
Unknown
Orbital elements
Apogee altitude
486.099 km
Perigee altitude
483.892 km
Semi-major axis
6,863.132 km
Eccentricity
0.00016
Inclination
43.0025°
RAAN
186.4703°
Arg. of periapsis
266.8042°
True anomaly
93.281°
Mean anomaly
93.2626°
Eccentric anomaly
93.2718°
Mean motion
3.81733 °/min
Orbital period
94.31 mins
BSTAR
0.000055466
Loading maneuver chart data...
Computing Atmospheric mass density...
Loading historical data...
Loading historical data...
Loading historical data...
Loading historical data...
Loading historical data...
Loading historical data...
Loading historical data...

Documentation

Showing up to 5 results
|